This demonstration page uses our WeatherBlox Daily Observations layout. Learn more.

Left ArrowRight Arrow

39.08367, -84.50855

Hourly Observations for June 13, 2020

Temp ( °F °C ) Dew Point ( °F °C ) Humidity (%) Winds ( mph kmh ) Pressure ( in mb ) Visibility ( mi km ) Precip ( " mm )
12:53 am 00:53 Clear 58 14.4 54 12.2 87 87 Calm 30.17 1022 10 16.0934 0 0
1:53 am 01:53 Clear 57 13.9 54 12.2 90 90 Calm 30.16 1021 10 16.0934 0 0
2:53 am 02:53 Clear 57 13.9 54 12.2 90 90 Calm 30.15 1021 10 16.0934 0 0
3:53 am 03:53 Clear 56 13.3 54 12.2 93 93 Calm 30.14 1021 10 16.0934 0 0
4:53 am 04:53 Clear 54 12.2 53 11.7 97 97 Calm 30.14 1021 10 16.0934 0 0
5:53 am 05:53 Clear 54 12.2 52 11.1 93 93 Calm 30.15 1021 10 16.0934 0 0
6:53 am 06:53 Sunny 54 12.2 54 12.2 100 100 Calm 30.16 1022 10 16.0934 0 0
7:53 am 07:53 Sunny 60 15.6 56 13.3 86 86 N 5 7 30.17 1022 10 16.0934 0 0
8:53 am 08:53 Mostly Cloudy 64 17.8 55 12.8 73 73 N 8 13 30.22 1023 10 16.0934 0 0
9:53 am 09:53 Mostly Cloudy 65 18.3 56 13.3 73 73 NNE 16 26 30.25 1025 10 16.0934 0.001 0.001
10:53 am 10:53 Mostly Sunny 65 18.3 56 13.3 73 73 ENE 12 19 30.23 1024 10 16.0934 0 0
11:53 am 11:53 Sunny 70 21.1 56 13.3 61 61 ENE 8 13 30.22 1023 10 16.0934 0 0
12:53 pm 12:53 Partly Cloudy 70 21.1 56 13.3 61 61 NE 6 9 30.22 1023 10 16.0934 0 0
1:53 pm 13:53 Partly Cloudy 73 22.8 57 13.9 57 57 ENE 9 15 30.2 1023 10 16.0934 0.001 0.001
2:53 pm 14:53 Mostly Sunny 76 24.4 56 13.3 50 50 NE 6 9 30.19 1022 10 16.0934 0 0
3:53 pm 15:53 Mostly Cloudy 76 24.4 56 13.3 50 50 NE 10 17 30.18 1022 10 16.0934 0 0
4:53 pm 16:53 Mostly Cloudy 73 22.8 58 14.4 59 59 NE 13 20 30.18 1022 10 16.0934 0 0
5:53 pm 17:53 Partly Cloudy 72 22.2 58 14.4 61 61 NE 13 20 30.18 1022 10 16.0934 0 0
6:53 pm 18:53 Sunny 73 22.8 57 13.9 57 57 ENE 10 17 30.17 1022 10 16.0934 0 0
7:53 pm 19:53 Mostly Cloudy 71 21.7 56 13.3 59 59 ENE 8 13 30.17 1022 10 16.0934 0 0
8:53 pm 20:53 Sunny 67 19.4 57 13.9 71 71 Calm 30.17 1022 10 16.0934 0 0
9:53 pm 21:53 Clear 65 18.3 57 13.9 76 76 ENE 5 7 30.18 1022 10 16.0934 0 0
10:53 pm 22:53 Mostly Clear 63 17.2 56 13.3 78 78 NE 7 11 30.2 1023 10 16.0934 0 0
11:53 pm 23:53 Mostly Cloudy 62 16.7 56 13.3 80 80 E 3 6 30.2 1023 10 16.0934 0 0

Powered by AerisWeather